(119106) = 2001 OU56

Discovered at Anderson Mesa on 2001-07-16 by LONEOS.

Orbit

Orbit type: Main Belt

Note: WebGL enabled browser required.

epoch2022-01-21.0
epoch JD2459600.5
perihelion date2020-04-20.66279
perihelion JD2458960.16279
argument of perihelion (°)220.60845
ascending node (°)121.91093
inclination (°)5.93581
eccentricity0.2170066
perihelion distance (AU)1.8754695
Tisserand w.r.t. Jupiter3.5
ΔV w.r.t. Earth (km/sec)8.7
semimajor axis (AU)2.3952557
mean anomaly (°)170.24908
mean daily motion (°/day)0.26587410
aphelion distance (AU)2.915
period (years)3.71
P-vector [x]0.95085619
P-vector [y]-0.25051402
P-vector [z]-0.18197594
Q-vector [x]0.29692802
Q-vector [y]0.90436667
Q-vector [z]0.30652027
absolute magnitude16.41
phase slope0.15
uncertainty0
referenceMPO 693737
observations used749
oppositions16
arc length (days)7572
first opposition used2001
last opposition used2022
residual rms (arc-secs)0.71
perturbers coarse indicatorM-v
perturbers precise indicator003Ek
first observation date used2001-06-28.0
last observation date used2022-03-22.0
computer namePan
JD of orbit computation2456760.789293
perihelion JD uncertainty (days)4.5380E-05
argument of perihelion uncertainty (°)3.1795E-05
ascending node uncertainty (°)2.9991E-05
inclination uncertainty (°)2.0472E-06
eccentricity uncertainty 2.2998E-08
perihelion distance uncertainty (AU)5.4365E-08
Minimum Orbit Intersection Distances (in AU)
for orbit epoch: 2458200.5, reference: MPO432693
Mercury1.47978
Venus1.14482
Earth0.86756
Mars0.493787
Jupiter2.48107
Saturn6.35915
Uranus15.2925
Neptune27.2344

Observations

748 total observations over interval: 2001 06 28.41269 – 2022 05 25.186457
These data are available for download (format description).

Date (UT) J2000 RA J2000 Dec Magn Location Ref
2001 06 28.41269 21 41 30.85 -13 39 46.8 18.6 R 699 – Lowell Observatory-LONEOS MPS 32871
2001 06 28.42682 21 41 31.04 -13 39 49.7   699 – Lowell Observatory-LONEOS MPS 32871
2001 06 28.44124 21 41 31.27 -13 39 50.7   699 – Lowell Observatory-LONEOS MPS 32871
2001 06 28.45531 21 41 31.55 -13 39 53.1   699 – Lowell Observatory-LONEOS MPS 32871
2001 07 16.35866 21 42 14.74 -15 05 20.9 18.5 R 699 – Lowell Observatory-LONEOS MPS 32507
2001 07 16.37509 21 42 14.44 -15 05 26.4   699 – Lowell Observatory-LONEOS MPS 32507
2001 07 16.39153 21 42 14.15 -15 05 33.4   699 – Lowell Observatory-LONEOS MPS 32507
2001 07 16.40801 21 42 13.88 -15 05 40.3   699 – Lowell Observatory-LONEOS MPS 32507
2001 07 21.42194 21 40 38.20 -15 41 55.2 18.9   608 – Haleakala-AMOS MPS 32507
2001 07 21.43270 21 40 37.91 -15 42 00.6 18.9   608 – Haleakala-AMOS MPS 32508
2001 07 21.44351 21 40 37.62 -15 42 05.5 18.9   608 – Haleakala-AMOS MPS 32508
2001 07 21.54910 21 40 34.75 -15 42 54.5 19.5   608 – Haleakala-AMOS MPS 32508
2001 07 21.56106 21 40 34.38 -15 43 00.3 19.4   608 – Haleakala-AMOS MPS 32508
2001 07 21.57208 21 40 34.10 -15 43 05.2 19.2   608 – Haleakala-AMOS MPS 32508
2001 07 22.35608 21 40 15.14 -15 49 10.7 17.2   704 – Lincoln Laboratory ETS, New Mexico MPS 32871
2001 07 22.36743 21 40 14.83 -15 49 16.2 18.3   704 – Lincoln Laboratory ETS, New Mexico MPS 32871
2001 07 22.37976 21 40 14.48 -15 49 22.3 18.0   704 – Lincoln Laboratory ETS, New Mexico MPS 32871
2001 07 30.33317 21 36 06.35 -16 56 20.9 17.3   704 – Lincoln Laboratory ETS, New Mexico MPS 32508
2001 07 30.34428 21 36 05.90 -16 56 26.7 17.9   704 – Lincoln Laboratory ETS, New Mexico MPS 32508
2001 07 30.35543 21 36 05.50 -16 56 32.9 17.8   704 – Lincoln Laboratory ETS, New Mexico MPS 32508
2001 07 30.36661 21 36 05.05 -16 56 37.6 17.9   704 – Lincoln Laboratory ETS, New Mexico MPS 32508
2001 07 30.37775 21 36 04.56 -16 56 44.4 17.9   704 – Lincoln Laboratory ETS, New Mexico MPS 32508
2001 08 16.27757 21 23 55.08 -19 29 59.4 17.7   704 – Lincoln Laboratory ETS, New Mexico MPS 32871
2001 08 16.28969 21 23 54.52 -19 30 06.3 17.9   704 – Lincoln Laboratory ETS, New Mexico MPS 32871
2001 08 16.30201 21 23 53.92 -19 30 12.2 17.9   704 – Lincoln Laboratory ETS, New Mexico MPS 32871
2001 08 16.31520 21 23 53.20 -19 30 19.3 17.6   704 – Lincoln Laboratory ETS, New Mexico MPS 32871
2001 08 16.32745 21 23 52.63 -19 30 25.7 17.8   704 – Lincoln Laboratory ETS, New Mexico MPS 32871
2001 08 19.26834 21 21 40.56 -19 55 24.8 18.6   704 – Lincoln Laboratory ETS, New Mexico MPS 33376
2001 08 19.28101 21 21 39.98 -19 55 31.1 19.1   704 – Lincoln Laboratory ETS, New Mexico MPS 33376
2001 08 19.29369 21 21 39.38 -19 55 37.5 18.8   704 – Lincoln Laboratory ETS, New Mexico MPS 33376
2001 08 19.30652 21 21 38.76 -19 55 44.9 18.8   704 – Lincoln Laboratory ETS, New Mexico MPS 33376
2001 08 19.31920 21 21 38.15 -19 55 51.1 18.8   704 – Lincoln Laboratory ETS, New Mexico MPS 33376
2001 08 21.48894 21 20 03.57 -20 13 26.2 18.6   608 – Haleakala-AMOS MPS 33376
2001 08 21.49982 21 20 03.06 -20 13 31.3 18.5   608 – Haleakala-AMOS MPS 33376
2001 08 21.51071 21 20 02.56 -20 13 36.4 18.6   608 – Haleakala-AMOS MPS 33376
2001 08 23.22089 21 18 51.48 -20 26 58.6 17.3 R 699 – Lowell Observatory-LONEOS MPS 33376
2001 08 23.23186 21 18 50.97 -20 27 03.1   699 – Lowell Observatory-LONEOS MPS 33376
2001 08 23.24291 21 18 50.46 -20 27 08.4   699 – Lowell Observatory-LONEOS MPS 33376
2001 08 23.25389 21 18 49.97 -20 27 13.5   699 – Lowell Observatory-LONEOS MPS 33376
2001 08 25.17048 21 17 33.29 -20 41 30.5 17.8   704 – Lincoln Laboratory ETS, New Mexico MPS 33376
2001 08 25.18613 21 17 32.60 -20 41 37.2 18.2   704 – Lincoln Laboratory ETS, New Mexico MPS 33376
2001 08 25.20190 21 17 31.97 -20 41 44.6 18.4   704 – Lincoln Laboratory ETS, New Mexico MPS 33376
2001 08 25.21761 21 17 31.28 -20 41 51.2 18.1   704 – Lincoln Laboratory ETS, New Mexico MPS 33376
2001 08 25.23293 21 17 30.63 -20 41 57.7 18.3   704 – Lincoln Laboratory ETS, New Mexico MPS 33376
2001 08 26.30772 21 16 49.65 -20 49 38.7 19.1   608 – Haleakala-AMOS MPS 33376
2001 08 26.31855 21 16 49.20 -20 49 43.2 19.1   608 – Haleakala-AMOS MPS 33376
2001 08 26.32974 21 16 48.74 -20 49 48.5 19.2   608 – Haleakala-AMOS MPS 33376
2001 08 26.46083 21 16 43.26 -20 50 43.3 19.3   608 – Haleakala-AMOS MPS 33376
2001 08 26.47169 21 16 42.83 -20 50 48.0 19.2   608 – Haleakala-AMOS MPS 33376
2001 08 26.48234 21 16 42.38 -20 50 52.0 19.0   608 – Haleakala-AMOS MPS 33376
2001 09 11.20140 21 10 10.80 -22 12 36.9 18.5   704 – Lincoln Laboratory ETS, New Mexico MPS 34474
2001 09 11.21650 21 10 10.62 -22 12 41.1 19.4   704 – Lincoln Laboratory ETS, New Mexico MPS 34474
2001 09 11.23144 21 10 10.40 -22 12 42.9 19.7   704 – Lincoln Laboratory ETS, New Mexico MPS 34474
2001 09 11.26127 21 10 09.96 -22 12 49.6 19.1   704 – Lincoln Laboratory ETS, New Mexico MPS 34474
2003 01 27.35262 08 30 49.85 +19 33 40.9 20.4 V 291 – LPL/Spacewatch II MPS 106133
2003 01 27.38288 08 30 47.91 +19 33 51.0 20.4 V 291 – LPL/Spacewatch II MPS 106133
2003 01 27.41328 08 30 45.97 +19 34 01.2 20.4 V 291 – LPL/Spacewatch II MPS 106133
2004 04 19.30219 13 54 54.06 -01 42 52.1 19.9   704 – Lincoln Laboratory ETS, New Mexico MPS 106133
2004 04 19.31455 13 54 53.18 -01 42 49.4 20.0   704 – Lincoln Laboratory ETS, New Mexico MPS 106133
2004 04 19.33697 13 54 52.02 -01 42 40.8 19.6   704 – Lincoln Laboratory ETS, New Mexico MPS 106133
2004 04 19.34796 13 54 51.28 -01 42 36.5 20.0   704 – Lincoln Laboratory ETS, New Mexico MPS 106133
2004 04 20.31968 13 53 56.35 -01 37 09.9 20.1   704 – Lincoln Laboratory ETS, New Mexico MPS 106133
2004 04 20.33083 13 53 55.86 -01 37 06.2 20.1   704 – Lincoln Laboratory ETS, New Mexico MPS 106133
2004 04 20.34190 13 53 55.09 -01 37 01.8 20.1   704 – Lincoln Laboratory ETS, New Mexico MPS 106133
2004 04 20.35296 13 53 54.46 -01 36 59.6 20.0   704 – Lincoln Laboratory ETS, New Mexico MPS 106133
2005 09 01.05648 02 35 19.51 +05 53 19.4 18.6 R 599 – Campo Imperatore-CINEOS MPS 140063
2005 09 01.06681 02 35 19.85 +05 53 18.1 19.1 R 599 – Campo Imperatore-CINEOS MPS 140063
2005 09 01.07706 02 35 20.20 +05 53 16.6 19.0 R 599 – Campo Imperatore-CINEOS MPS 140063
2005 09 01.08738 02 35 20.61 +05 53 15.2 19.1 R 599 – Campo Imperatore-CINEOS MPS 140063
2005 09 16.29163 02 40 25.19 +04 59 56.7 18.5 R 699 – Lowell Observatory-LONEOS MPS 141606
2005 09 16.31541 02 40 25.31 +04 59 49.3   699 – Lowell Observatory-LONEOS MPS 141606
2005 09 16.34648 02 40 25.31 +04 59 41.2   699 – Lowell Observatory-LONEOS MPS 141606
2005 09 16.36911 02 40 25.20 +04 59 35.3   699 – Lowell Observatory-LONEOS MPS 141606
2005 09 27.44811 02 38 46.88 +04 01 33.3 18.4 R 644 – Palomar Mountain/NEAT MPS 142505
2005 09 27.45635 02 38 46.69 +04 01 30.5 18.6 R 644 – Palomar Mountain/NEAT MPS 142505
2005 09 27.45910 02 38 46.61 +04 01 29.5 18.4 R 644 – Palomar Mountain/NEAT MPS 142505
2005 09 27.46815 02 38 46.39 +04 01 26.6 18.6 R 644 – Palomar Mountain/NEAT MPS 142505
2005 09 27.47127 02 38 46.32 +04 01 25.2 18.4 R 644 – Palomar Mountain/NEAT MPS 142505
2005 09 27.47916 02 38 46.14 +04 01 22.7 18.7 R 644 – Palomar Mountain/NEAT MPS 142505
2005 10 01.36960 02 37 08.86 +03 38 33.9 18.6 V 703 – Catalina Sky Survey MPS 143486
2005 10 01.37902 02 37 08.61 +03 38 31.1 18.5 V 703 – Catalina Sky Survey MPS 143486
2005 10 01.38844 02 37 08.36 +03 38 27.0 18.4 V 703 – Catalina Sky Survey MPS 143486
2005 10 01.39782 02 37 07.96 +03 38 24.3 18.7 V 703 – Catalina Sky Survey MPS 143486
2005 10 07.31484 02 33 43.41 +03 02 49.5 18.5 V 703 – Catalina Sky Survey MPS 143486
2005 10 07.32114 02 33 43.14 +03 02 47.4 18.1 R 699 – Lowell Observatory-LONEOS MPS 143486
2005 10 07.32308 02 33 43.05 +03 02 46.3 18.4 V 703 – Catalina Sky Survey MPS 143486
2005 10 07.33146 02 33 42.66 +03 02 43.0 18.2 V 703 – Catalina Sky Survey MPS 143486
2005 10 07.33985 02 33 42.37 +03 02 39.9 18.2 V 703 – Catalina Sky Survey MPS 143486
2005 10 07.35030 02 33 41.92 +03 02 36.7   699 – Lowell Observatory-LONEOS MPS 143486
2005 10 07.41065 02 33 39.24 +03 02 14.9   699 – Lowell Observatory-LONEOS MPS 143486
2005 10 07.43994 02 33 38.03 +03 02 04.4   699 – Lowell Observatory-LONEOS MPS 143486
